FENGYUN 1C DEB, 30814

Orbit data source: Space-Track

FENGYUN 1C DEB, 30814 is space debris in SSO originally from a launch on Mon, 10 May 1999 UTC launched from the Taiyaun Space Center, China (TSC). Fengyun 1C debris stems from the Chinese weather satellite Fengyun-1C, which was intentionally destroyed by a Chinese anti-satellite missile in 2007. This event dramatically increased the amount of space debris, with thousands of trackable fragments posing hazards to satellites and human spaceflight. The Fengyun 1C debris cloud has become a focal point in discussions about space sustainability and the need for international regulations to prevent the creation of new debris.

Loading next visibility...
Identifier
30814, 1999-025AUY
Orbit
SSO
Country
Flag of CNCN / PRC
Related business
Manufacturer
Unknown
Mission
Spacecraft
Bus & Motor
Unknown
Mass
Unknown
Launch date (UTC)
1999-05-10 (27 years ago)
Launch vehicle
Unknown
Launch site
Taiyaun Space Center, China (TSC)
Object type
Payload
Rocket body
Debris
Shape & HBR
Unknown shape, 0.1 m
Radar Cross Section
Small (<0.1 m²)

Expand to show TLE details & history
Last TLE update: 6 hours ago

TLE from 6 hours ago
0 FENGYUN 1C DEB
1 30814U 99025AUY 26062.41585431  .00018971  00000-0  36759-2 0  9996
2 30814  99.0864  51.6960 0031125 350.8978 165.9432 14.63011810989206
Epoch: 2026-03-03T09:58Z
TLE epoch observation values (Epoch: 2026-03-03T09:58:49.812Z)
Latitude
22.78564°
Longitude
-75.37537°
Altitude
707.598 km
Speed
7.493 km/s
True Right ascension
15h 42m 06s
True Declination
22° 39' 44"
Sunlit
Object was in daylight at epoch
Visualization orbit readout
Latitude
Unknown
Longitude
Unknown
Altitude
Unknown
Speed
Unknown
Apparent Right ascension
Unknown
Apparent Declination
Unknown
Sunlit
N/A
Visualization observer readout
Local Sidereal Time
20:04:07
Azimuth
Unknown
Elevation
Unknown
Doppler factor
Unknown
Orbital elements
Apogee altitude
702.556 km
Perigee altitude
658.616 km
Semi-major axis
7,058.723 km
Eccentricity
0.00311
Inclination
99.0864°
RAAN
51.696°
Arg. of periapsis
350.8978°
True anomaly
166.0295°
Mean anomaly
165.9432°
Eccentric anomaly
165.98638°
Mean motion
3.65977 °/min
Orbital period
98.37 mins
BSTAR
0.0036759
Loading maneuver chart data...
Computing Atmospheric mass density...

Documentation

Showing up to 5 results
|